Date String (YYYY-MM-DD hh:mm:ss) UTC,Instrument flags,Ambient pressure (hPa),Sample flow (lpm),Bypass flow (lpm),Sample temperature (°C),Ambient temperature (°C),ASC tube jacket temperature (°C),LED temperature (°C),Box temperature (°C),Sample RH (%),Span deviation,Mass concentration (μg/m³),Mass concentration (μg/m³),Mass concentration (μg/m³)
DateTimeUTC,F1_M11,P_M11,Q1_M11,Q2_M11,T1_M11,T2_M11,T3_M11,T4_M11,T5_M11,U1_M11,ZSPAN_M11,X0_M11,X2_M11,X1_M11
2022-10-14 07:00:00,,0825.8,5.01,0.00,28.1,26.4,00.0,37.0,29.9,09.5,0000.0,0005.40,0003.76,0003.54
2022-10-14 07:01:00,,0825.9,5.00,0.00,28.1,26.4,00.0,37.0,29.8,09.4,0000.0,0005.43,0003.76,0003.53
2022-10-14 07:02:00,,0826.0,5.00,0.00,28.1,26.4,00.0,37.0,29.9,09.3,0000.0,0005.45,0003.76,0003.53
2022-10-14 07:03:00,,0825.8,5.00,0.00,28.1,26.4,00.0,37.0,29.9,09.3,0000.0,0005.35,0003.74,0003.51
2022-10-14 07:04:00,,0825.7,4.99,0.00,28.1,26.4,00.0,37.0,29.9,09.3,0000.0,0005.35,0003.74,0003.51
2022-10-14 07:05:00,,0825.7,5.00,0.00,28.1,26.4,00.0,36.9,29.9,09.3,0000.0,0005.22,0003.71,0003.50
2022-10-14 07:06:00,,0825.7,5.01,0.00,28.1,26.4,00.0,36.9,29.9,09.3,0000.0,0005.28,0003.70,0003.49
2022-10-14 07:07:00,,0825.7,5.00,0.00,28.1,26.4,00.0,36.9,29.9,09.2,0000.0,0005.20,0003.67,0003.47
2022-10-14 07:08:00,,0825.7,5.01,0.00,28.1,26.3,00.0,36.9,29.8,09.2,0000.0,0005.30,0003.68,0003.46
2022-10-14 07:09:00,,0825.6,5.00,0.00,28.1,26.3,00.0,36.9,29.8,09.2,0000.0,0005.31,0003.68,0003.46
2022-10-14 07:10:00,,0825.6,5.00,0.00,28.0,26.3,00.0,36.9,29.8,09.1,0000.0,0005.28,0003.68,0003.44
2022-10-14 07:11:00,,0825.6,4.99,0.00,28.0,26.3,00.0,36.9,29.8,09.1,0000.0,0005.30,0003.69,0003.43
2022-10-14 07:12:00,,0825.6,4.99,0.00,28.0,26.3,00.0,36.9,29.8,09.3,0000.0,0005.30,0003.69,0003.43
2022-10-14 07:13:00,,0825.6,5.00,0.00,28.0,26.3,00.0,36.9,29.8,09.2,0000.0,0005.19,0003.68,0003.42
2022-10-14 07:14:00,,0825.6,5.00,0.00,28.0,26.3,00.0,36.9,29.8,09.2,0000.0,0005.14,0003.66,0003.41
2022-10-14 07:15:00,,0825.6,5.01,0.00,28.0,26.3,00.0,36.9,29.8,09.2,0000.0,0005.02,0003.62,0003.39
2022-10-14 07:16:00,,0825.6,5.00,0.00,28.0,26.3,00.0,36.9,29.8,09.2,0000.0,0005.03,0003.62,0003.39
2022-10-14 07:17:00,,0825.5,5.00,0.00,28.0,26.3,00.0,36.9,29.8,09.2,0000.0,0004.86,0003.60,0003.38
2022-10-14 07:18:00,,0825.5,5.01,0.00,28.0,26.3,00.0,36.9,29.8,09.2,0000.0,0004.86,0003.60,0003.37
2022-10-14 07:19:00,,0825.5,5.00,0.00,28.0,26.2,00.0,36.9,29.7,09.2,0000.0,0004.70,0003.57,0003.37
2022-10-14 07:20:00,,0825.5,4.98,0.00,28.0,26.2,00.0,36.9,29.7,09.2,0000.0,0004.75,0003.58,0003.36
2022-10-14 07:21:00,,0825.5,5.00,0.00,28.0,26.2,00.0,36.9,29.8,09.1,0000.0,0005.00,0003.60,0003.36
2022-10-14 07:22:00,,0825.5,5.00,0.00,28.0,26.2,00.0,36.8,29.8,09.0,0000.0,0004.93,0003.56,0003.35
2022-10-14 07:23:00,,0825.4,5.00,0.00,28.0,26.2,00.0,36.8,29.7,09.0,0000.0,0005.00,0003.54,0003.33
2022-10-14 07:24:00,,0825.5,5.00,0.00,28.0,26.2,00.0,36.8,29.7,09.0,0000.0,0004.92,0003.52,0003.31
2022-10-14 07:25:00,,0825.4,5.00,0.00,27.9,26.2,00.0,36.8,29.7,09.0,0000.0,0004.89,0003.51,0003.30
2022-10-14 07:26:00,,0825.5,5.01,0.00,27.9,26.2,00.0,36.8,29.7,09.0,0000.0,0004.95,0003.51,0003.29
2022-10-14 07:27:00,,0825.4,5.00,0.00,27.9,26.2,00.0,36.8,29.7,09.2,0000.0,0004.94,0003.49,0003.27
2022-10-14 07:28:00,,0825.4,5.00,0.00,27.9,26.2,00.0,36.8,29.7,09.2,0000.0,0004.91,0003.48,0003.26
2022-10-14 07:29:00,,0825.4,4.98,0.00,27.9,26.2,00.0,36.8,29.7,09.0,0000.0,0005.25,0003.49,0003.25
2022-10-14 07:30:00,,0825.3,5.00,0.00,27.9,26.1,00.0,36.8,29.7,08.9,0000.0,0005.40,0003.47,0003.23
2022-10-14 07:31:00,,0825.4,5.02,0.00,27.9,26.1,00.0,36.8,29.6,09.0,0000.0,0005.38,0003.47,0003.22
2022-10-14 07:32:00,,0825.4,4.99,0.00,27.9,26.1,00.0,36.8,29.7,09.1,0000.0,0005.49,0003.44,0003.21
2022-10-14 07:33:00,,0825.4,4.99,0.00,27.9,26.1,00.0,36.8,29.7,09.1,0000.0,0005.69,0003.44,0003.20
2022-10-14 07:34:00,,0825.4,5.00,0.00,27.9,26.1,00.0,36.8,29.6,09.2,0000.0,0005.80,0003.46,0003.20
2022-10-14 07:35:00,,0825.4,5.00,0.00,27.9,26.1,00.0,36.8,29.6,09.1,0000.0,0006.64,0003.50,0003.20
2022-10-14 07:36:00,,0825.4,5.00,0.00,27.9,26.1,00.0,36.8,29.7,09.1,0000.0,0006.75,0003.52,0003.21
2022-10-14 07:37:00,,0825.3,5.00,0.00,27.9,26.1,00.0,36.7,29.7,09.0,0000.0,0006.74,0003.52,0003.22
2022-10-14 07:38:00,,0825.4,5.00,0.00,27.8,26.1,00.0,36.7,29.6,08.9,0000.0,0006.78,0003.53,0003.23
2022-10-14 07:39:00,,0825.3,5.00,0.00,27.8,26.1,00.0,36.7,29.7,09.1,0000.0,0007.15,0003.55,0003.24
2022-10-14 07:40:00,,0825.4,5.01,0.00,27.8,26.1,00.0,36.7,29.6,09.1,0000.0,0007.71,0003.57,0003.24
2022-10-14 07:41:00,,0825.3,5.00,0.00,27.8,26.1,00.0,36.7,29.6,09.2,0000.0,0007.65,0003.58,0003.24
2022-10-14 07:42:00,,0825.3,4.99,0.00,27.8,26.1,00.0,36.7,29.6,09.3,0000.0,0007.59,0003.56,0003.24
2022-10-14 07:43:00,,0825.3,4.99,0.00,27.8,26.1,00.0,36.7,29.6,09.4,0000.0,0007.41,0003.56,0003.25
2022-10-14 07:44:00,,0825.3,4.99,0.00,27.8,26.1,00.0,36.7,29.6,09.2,0000.0,0007.39,0003.58,0003.25
2022-10-14 07:45:00,,0825.4,5.00,0.00,27.8,26.0,00.0,36.7,29.5,09.3,0000.0,0007.14,0003.57,0003.26
2022-10-14 07:46:00,,0825.3,5.00,0.00,27.8,26.1,00.0,36.7,29.6,09.3,0000.0,0006.31,0003.54,0003.27
2022-10-14 07:47:00,,0825.3,5.01,0.00,27.8,26.0,00.0,36.7,29.6,09.3,0000.0,0006.16,0003.52,0003.28
2022-10-14 07:48:00,,0825.3,5.00,0.00,27.8,26.0,00.0,36.7,29.6,09.3,0000.0,0006.12,0003.52,0003.28
2022-10-14 07:49:00,,0825.3,5.00,0.00,27.8,26.0,00.0,36.7,29.6,09.4,0000.0,0006.07,0003.52,0003.28
2022-10-14 07:50:00,,0825.3,5.00,0.00,27.8,26.0,00.0,36.7,29.6,09.4,0000.0,0005.62,0003.54,0003.29
2022-10-14 07:51:00,,0825.3,4.99,0.00,27.8,26.0,00.0,36.7,29.6,09.4,0000.0,0004.73,0003.52,0003.30
2022-10-14 07:52:00,,0825.3,4.99,0.00,27.8,26.0,00.0,36.7,29.5,09.4,0000.0,0004.66,0003.51,0003.31
2022-10-14 07:53:00,,0825.3,4.99,0.00,27.8,26.0,00.0,36.7,29.5,09.4,0000.0,0004.87,0003.54,0003.32
2022-10-14 07:54:00,,0825.2,5.00,0.00,27.8,26.0,00.0,36.7,29.6,09.4,0000.0,0005.94,0003.56,0003.34
2022-10-14 07:55:00,,0825.2,5.00,0.00,27.8,26.0,00.0,36.6,29.6,09.4,0000.0,0007.31,0003.55,0003.34
2022-10-14 07:56:00,,0825.3,5.01,0.00,27.8,26.0,00.0,36.6,29.6,09.3,0000.0,0007.39,0003.56,0003.35
2022-10-14 07:57:00,,0825.3,5.01,0.00,27.8,26.0,00.0,36.6,29.6,09.3,0000.0,0007.39,0003.57,0003.35
2022-10-14 07:58:00,,0825.2,5.00,0.00,27.8,26.0,00.0,36.6,29.6,09.3,0000.0,0007.44,0003.58,0003.35
2022-10-14 07:59:00,,0825.2,5.00,0.00,27.7,26.1,00.0,36.6,29.6,09.4,0000.0,0007.43,0003.58,0003.35
